This is the latest recevied weather packets stored in our database for station/object K5KVN. If no packets are shown the sender has not sent any weather packets the latest 10 day(s).
| Time | Temp. | Humidity | Pressure | Rain* | Wind** | Luminosity | Snow |
|---|---|---|---|---|---|---|---|
| 1788432360 | 22.78° C | 88% | 1016.9 hPa | 0 mm | - | - | - |
| 1788431759 | 22.22° C | 88% | 1017 hPa | 0 mm | - | - | - |
| 1788431158 | 22.78° C | 88% | 1016.9 hPa | 0 mm | - | - | - |
| 1788430559 | 22.78° C | 88% | 1016.8 hPa | 0 mm | - | - | - |
| 1788429958 | 22.78° C | 87% | 1016.9 hPa | 0 mm | - | - | - |
| 1788429357 | 22.78° C | 87% | 1016.7 hPa | 0 mm | - | - | - |
| 1788428756 | 22.78° C | 87% | 1016.7 hPa | 0 mm | - | - | - |
| 1788428157 | 22.78° C | 86% | 1016.7 hPa | 0 mm | - | - | - |
| 1788427558 | 23.33° C | 85% | 1016.8 hPa | 0 mm | - | - | - |
| 1788426966 | 23.33° C | 84% | 1016.7 hPa | 0 mm | - | - | - |
| 1788426416 | 23.89° C | 83% | 1016.7 hPa | 0 mm | - | - | - |
| 1788425753 | 23.89° C | 83% | 1016.7 hPa | 0 mm | - | - | - |
| 1788425154 | 23.89° C | 82% | 1016.7 hPa | 0 mm | - | - | - |
| 1788424554 | 23.89° C | 82% | 1016.7 hPa | 0 mm | - | - | - |
| 1788423954 | 23.89° C | 82% | 1016.7 hPa | 0 mm | - | - | - |
| 1788423354 | 24.44° C | 81% | 1016.7 hPa | 0 mm | - | - | - |
| 1788422814 | 24.44° C | 81% | 1016.5 hPa | 0 mm | - | - | - |
| 1788422154 | 24.44° C | 80% | 1016.5 hPa | 0 mm | - | - | - |
| 1788421554 | 24.44° C | 80% | 1016.5 hPa | 0 mm | - | - | - |
| 1788420954 | 25° C | 79% | 1016.5 hPa | 0 mm | - | - | - |
| 1788420414 | 25° C | 79% | 1016.6 hPa | 0 mm | - | - | - |
| 1788419814 | 25° C | 79% | 1016.5 hPa | 0 mm | - | - | - |
| 1788419154 | 25° C | 78% | 1016.5 hPa | 0 mm | - | - | - |
| 1788418554 | 25° C | 78% | 1016.4 hPa | 0 mm | - | - | - |
| 1788417955 | 25° C | 77% | 1016.4 hPa | 0 mm | - | - | - |
* Rain latest hour (hover to see other rain measurements)
** Current wind speed in m/s (hover to see current wind gust speed)